Tracking 31013 objects as of 11-Jul-2025
HD Live streaming from Space Station
objects crossing your sky now

ATLAS 5 CENTAUR DEB

Track ATLAS 5 CENTAUR DEB now!


NORAD ID: 44654
Int'l Code: 2018-079Q
Perigee: 8,776.1 km
Apogee: 35,422.6 km
Inclination: 13.2 °
Period: 796.8 minutes
Semi major axis: 28470 km
RCS: Unknown
Launch date: October 17, 2018
Source: United States (US)
Launch site: AIR FORCE EASTERN TEST RANGE (AFETR)

Note: This is SATELLITE DEBRIS
Your satellite tracking list
Your tracking list is empty




NASA's NSSDC Master Catalog

Two Line Element Set (TLE):
1 44654U 18079Q   25181.32324894 -.00000136  00000-0  00000-0 0  9991
2 44654  13.1936  63.9528 4679697 253.7752  51.2045  1.80723109 38931
Source of the keplerian elements: AFSPC